User: anonymous   Login
Location: Monteux
(44.0348°N, 4.9972°E)
Time: 03:00:00
(UTC+00:00)
Language:

FENGYUN 1C DEB - Orbit

View from above orbital plane
View from above orbital plane
View from above satellite
View from above satellite

Ground track
Ground track

The orbit data is extracted from the following two-line orbital elements,

1 30647U 99025APE 21165.43925015  .00000981  00000-0  40186-3 0  9999
2 30647  99.0695 355.6271 0045493 316.2943 112.9719 14.29053153743908
Epoch (UTC): 14 June 2021 10:32:31
Eccentricity: 0.0045493
inclination: 99.0695°
perigee height: 762 km
apogee height: 827 km
right ascension of ascending node: 355.6271°
argument of perigee: 316.2943°
revolutions per day: 14.29053153
mean anomaly at epoch: 112.9719°
orbit number at epoch: 74390

The dashed part of the orbit path shows where the satellite is in the earth's shadow,  

DLR